Weather History for Fairbanks, AK

Change the Weather History Date:

Monday, March 11, 2013

  Actual Average Record
Temperature  
Mean Temperature 8 °F 8 °F  
Max Temperature 23 °F 23 °F 47 °F (1970)
Min Temperature -7 °F -6 °F -41 °F (1930)
Degree Days  
Heating Degree Days 57 57  
Month to date heating degree days 593 647  
Since 1 July heating degree days 11564 11037  
Cooling Degree Days 0 0  
Month to date cooling degree days 0 0  
Year to date cooling degree days 0 0  
Moisture  
Dew Point 2 °F    
Average Humidity 75    
Maximum Humidity 88    
Minimum Humidity 49    
Precipitation  
Precipitation T in 0.01 in 0.30 in (1921)
Month to date precipitation 0.08 0.11  
Year to date precipitation 1.35 1.11  
Snow  
Snow T in 0.20 in 3.50 in (1935)
Month to date snowfall 1.2 2.0  
Since 1 July snowfall 51.7 58.3  
Snow Depth 21.00 in    
Sea Level Pressure  
Sea Level Pressure 30.53 in    
Wind  
Wind Speed 2 mph (South)    
Max Wind Speed 6 mph    
Max Gust Speed -    
Visibility 10 miles    
Events Snow    
T = Trace of Precipitation, MM = Missing Value Source: NWS Daily Summary

Daily Weather History Graph

Daily Weather History Graph

Search for Another Location

Airport:

Trip Planner

Search our weather history database for the weather conditions in past years. The results will help you decide how hot, cold, wet, or windy it might be!

Date:

Astronomy

Mar. 11, 2013 Rise Set
Actual Time 8:23 AM AKDT 7:41 PM AKDT
Civil Twilight 7:34 AM AKDT 8:29 PM AKDT
Nautical Twilight 6:37 AM AKDT 9:27 PM AKDT
Astronomical Twilight 5:34 AM AKDT 10:30 PM AKDT
Moon 7:49 AM AKDT (3/11) 8:28 PM AKDT (3/11)
Length of Visible Light 12h 55m
Length of Day
11h 18m
Waxing Crescent, 0% of the Moon is Illuminated
Mar 11
Waxing Crescent
Mar 19
First Quarter
Mar 27
Full
Apr 2
Last Quarter
Apr 10
New

Hourly Weather History & Observations

Time (AKDT) Temp. Windchill Dew Point Humidity Pressure Visibility Wind Dir Wind Speed Gust Speed Precip Events Conditions
12:53 AM -0.0 °F -7.9 °F -4.0 °F 83% 30.36 in 10.0 mi ESE 3.5 mph - N/A   Scattered Clouds
1:53 AM -0.9 °F - -7.1 °F 75% 30.39 in 10.0 mi Calm Calm - N/A   Scattered Clouds
2:53 AM -2.9 °F - -9.0 °F 75% 30.41 in 10.0 mi Calm Calm - N/A   Scattered Clouds
3:53 AM -2.0 °F - -7.1 °F 79% 30.43 in 10.0 mi Calm Calm - N/A   Scattered Clouds
4:53 AM -4.0 °F - -9.0 °F 79% 30.45 in 10.0 mi Calm Calm - N/A   Scattered Clouds
5:53 AM 1.9 °F -5.6 °F -2.9 °F 80% 30.46 in 10.0 mi NE 3.5 mph - N/A   Mostly Cloudy
6:53 AM 3.0 °F - -2.0 °F 80% 30.48 in 10.0 mi Calm Calm - N/A   Mostly Cloudy
7:53 AM 1.0 °F - -4.0 °F 79% 30.50 in 10.0 mi Calm Calm - N/A   Mostly Cloudy
8:53 AM 3.9 °F - -2.0 °F 76% 30.51 in 10.0 mi Calm Calm - N/A   Mostly Cloudy
9:53 AM 6.1 °F - 1.9 °F 83% 30.53 in 10.0 mi Calm Calm - N/A Snow Light Snow
10:53 AM 9.0 °F - 6.1 °F 88% 30.55 in 10.0 mi Calm Calm - N/A Snow Light Snow
11:53 AM 12.9 °F 5.2 °F 8.1 °F 81% 30.56 in 10.0 mi South 4.6 mph - N/A   Mostly Cloudy
12:53 PM 16.0 °F 10.4 °F 9.0 °F 74% 30.57 in 10.0 mi South 3.5 mph - N/A   Mostly Cloudy
1:53 PM 18.0 °F 9.8 °F 9.0 °F 68% 30.58 in 10.0 mi South 5.8 mph - N/A   Scattered Clouds
2:53 PM 19.9 °F 12.1 °F 10.0 °F 65% 30.57 in 10.0 mi South 5.8 mph - N/A   Scattered Clouds
3:53 PM 21.9 °F 14.5 °F 10.9 °F 63% 30.57 in 10.0 mi SSW 5.8 mph - N/A   Partly Cloudy
4:53 PM 21.9 °F 14.5 °F 10.9 °F 63% 30.57 in 10.0 mi SSW 5.8 mph - N/A   Partly Cloudy
5:53 PM 23.0 °F 18.4 °F 10.9 °F 60% 30.57 in 10.0 mi SSW 3.5 mph - N/A   Partly Cloudy
6:53 PM 21.0 °F 14.6 °F 10.0 °F 63% 30.58 in 10.0 mi SSW 4.6 mph - N/A   Partly Cloudy
7:53 PM 10.9 °F - 6.1 °F 81% 30.58 in 10.0 mi Calm Calm - N/A   Partly Cloudy
8:53 PM 5.0 °F -2.1 °F 1.0 °F 84% 30.60 in 10.0 mi NNW 3.5 mph - N/A   Partly Cloudy
9:53 PM 3.0 °F - -0.9 °F 84% 30.60 in 10.0 mi Calm Calm - N/A   Clear
10:53 PM 1.9 °F - -0.9 °F 88% 30.60 in 10.0 mi Calm Calm - N/A   Clear
11:53 PM 1.0 °F - -2.9 °F 83% 30.62 in 10.0 mi Calm Calm - N/A   Clear